PAC957 KPDX-CYEG

Flight info

Callsign PAC957
Flight time N/A
Altitude 37000
Route LAVAA7 SUNED DCT ANTAK DCT OILRS OILRS2
Aircraft B748/H-SDE3FGHIM1M2RWXY/LB1

Departure

Time 2026-05-06 02:19
Airport Portland International Airport (KPDX)

Arrival

Time N/A
Airport Edmonton International Airport (CYEG)
Time Latitude Longitude Altitude Speed Heading
2026-05-06 01:52 45.58060 -122.61394 34 ft 0 kts 135°
2026-05-06 02:04 45.58069 -122.61408 34 ft 2 kts 135°
2026-05-06 02:04 45.58081 -122.61425 33 ft 2 kts 134°
2026-05-06 02:05 45.58093 -122.61441 32 ft 2 kts 121°
2026-05-06 02:05 45.58098 -122.61463 32 ft 2 kts 83°
2026-05-06 02:05 45.58094 -122.61486 31 ft 2 kts 65°
2026-05-06 02:05 45.58086 -122.61507 31 ft 2 kts 47°
2026-05-06 02:06 45.58075 -122.61524 31 ft 2 kts 45°
2026-05-06 02:06 45.58071 -122.61529 29 ft 0 kts 44°
2026-05-06 02:09 45.58078 -122.61520 33 ft 2 kts 43°
2026-05-06 02:09 45.58085 -122.61514 33 ft 1 kts 30°
2026-05-06 02:09 45.58091 -122.61511 33 ft 0 kts 25°
2026-05-06 02:10 45.58098 -122.61507 33 ft 0 kts 17°
2026-05-06 02:11 45.58099 -122.61507 33 ft 1 kts 17°
2026-05-06 02:11 45.58114 -122.61506 33 ft 4 kts 359°
2026-05-06 02:11 45.58137 -122.61519 33 ft 4 kts 330°
2026-05-06 02:12 45.58165 -122.61535 34 ft 5 kts 349°
2026-05-06 02:12 45.58198 -122.61522 34 ft 6 kts 30°
2026-05-06 02:12 45.58244 -122.61465 35 ft 11 kts 44°
2026-05-06 02:12 45.58305 -122.61377 38 ft 14 kts 45°
2026-05-06 02:13 45.58381 -122.61270 38 ft 17 kts 45°
2026-05-06 02:13 45.58467 -122.61149 38 ft 17 kts 44°
2026-05-06 02:13 45.58552 -122.61030 37 ft 15 kts 45°
2026-05-06 02:13 45.58619 -122.60935 36 ft 14 kts 45°
2026-05-06 02:14 45.58687 -122.60836 36 ft 14 kts 45°
2026-05-06 02:14 45.58740 -122.60761 34 ft 2 kts 45°
2026-05-06 02:14 45.58763 -122.60728 35 ft 7 kts 45°
2026-05-06 02:14 45.58789 -122.60676 35 ft 4 kts 72°
2026-05-06 02:15 45.58787 -122.60635 36 ft 5 kts 101°
2026-05-06 02:15 45.58774 -122.60575 35 ft 8 kts 110°
2026-05-06 02:15 45.58743 -122.60486 36 ft 12 kts 119°
2026-05-06 02:15 45.58697 -122.60370 38 ft 15 kts 119°
2026-05-06 02:16 45.58643 -122.60232 39 ft 17 kts 119°
2026-05-06 02:16 45.58582 -122.60074 41 ft 19 kts 119°
2026-05-06 02:16 45.58518 -122.59909 41 ft 20 kts 118°
2026-05-06 02:16 45.58452 -122.59736 41 ft 20 kts 118°
2026-05-06 02:17 45.58384 -122.59560 39 ft 21 kts 120°
2026-05-06 02:17 45.58315 -122.59385 40 ft 16 kts 119°
2026-05-06 02:17 45.58307 -122.59294 39 ft 7 kts 57°
2026-05-06 02:17 45.58348 -122.59255 38 ft 6 kts 19°
2026-05-06 02:18 45.58380 -122.59264 38 ft 4 kts 330°
2026-05-06 02:18 45.58400 -122.59293 38 ft 5 kts 306°
2026-05-06 02:18 45.58426 -122.59355 38 ft 19 kts 300°
2026-05-06 02:18 45.58630 -122.59884 44 ft 105 kts 299°
2026-05-06 02:19 45.59119 -122.61137 99 ft 176 kts 299°
2026-05-06 02:19 45.59763 -122.62736 909 ft 190 kts 302°
2026-05-06 02:19 45.60492 -122.64303 2052 ft 188 kts 305°
2026-05-06 02:19 45.61232 -122.65916 2793 ft 201 kts 303°
2026-05-06 02:20 45.62783 -122.69687 3998 ft 243 kts 300°
2026-05-06 02:20 45.63613 -122.71858 4849 ft 265 kts 300°
2026-05-06 02:20 45.64601 -122.74339 5280 ft 296 kts 302°
2026-05-06 02:21 45.65771 -122.76710 6651 ft 293 kts 314°
2026-05-06 02:21 45.67444 -122.78253 8064 ft 282 kts 337°
2026-05-06 02:21 45.69353 -122.78858 9321 ft 285 kts 358°
2026-05-06 02:21 45.71302 -122.78345 10531 ft 289 kts 21°
2026-05-06 02:22 45.73075 -122.76893 11654 ft 295 kts 34°
2026-05-06 02:22 45.74618 -122.75018 12910 ft 296 kts 48°
2026-05-06 02:22 45.75702 -122.72405 13889 ft 314 kts 67°
2026-05-06 02:22 45.76095 -122.69275 14517 ft 335 kts 86°
2026-05-06 02:23 45.75986 -122.65831 15095 ft 356 kts 92°
2026-05-06 02:23 45.75731 -122.62203 15612 ft 377 kts 93°
2026-05-06 02:23 45.75552 -122.58371 16094 ft 396 kts 89°
2026-05-06 02:23 45.75547 -122.54324 16488 ft 417 kts 87°
2026-05-06 02:24 45.75602 -122.50097 17076 ft 431 kts 87°
2026-05-06 02:24 45.75580 -122.45762 17918 ft 439 kts 89°
2026-05-06 02:24 45.75477 -122.41357 18754 ft 445 kts 89°
2026-05-06 02:24 45.75400 -122.36910 19527 ft 450 kts 88°
2026-05-06 02:25 45.75366 -122.32414 20294 ft 455 kts 88°
2026-05-06 02:25 45.75323 -122.27857 21038 ft 460 kts 88°
2026-05-06 02:25 45.75251 -122.23259 21779 ft 465 kts 88°
2026-05-06 02:25 45.75176 -122.18597 22507 ft 470 kts 88°
2026-05-06 02:26 45.75111 -122.13905 23192 ft 474 kts 88°
2026-05-06 02:26 45.75048 -122.09160 23815 ft 479 kts 88°
2026-05-06 02:26 45.74976 -122.04422 24337 ft 483 kts 88°
2026-05-06 02:26 45.74897 -121.99597 24884 ft 487 kts 88°
2026-05-06 02:27 45.74819 -121.94737 25387 ft 491 kts 88°
2026-05-06 02:27 45.74773 -121.89832 25907 ft 493 kts 84°
2026-05-06 02:27 45.75217 -121.84992 26436 ft 491 kts 73°
2026-05-06 02:27 45.76240 -121.80339 26949 ft 489 kts 64°
2026-05-06 02:28 45.77570 -121.75842 27435 ft 493 kts 64°
2026-05-06 02:28 45.78930 -121.71311 27947 ft 496 kts 63°